www.pogodaiklimat.ru

Погода и климат >> Архив погоды >> Южная Африка >> Станция Charters Creek


ПОГОДА на Станции Charters Creek

  • Прогноз погоды на Станции Charters Creek
  • Монитор погоды на Станции Charters Creek

АРХИВ ПОГОДЫ на Станции Charters Creek

Время (UTC), дата Ветер
(напр.,м/с)
 
Видим.   Явления Облачность Т
(С)
Тd
(С)
f
(%)
Тe
(С)
Тes
(С)
Комфортность P
(гПа)
Po
(гПа)
Тmin
(С)
Tmax
(С)
R
(мм)
R24
(мм)
S
(см)
00 11.06 ЮЗ 1 н/о н/о +13.8 +12.8 94 +14 +14 1023.6 1022.7 +12.4 +28.2
03 11.06 З 2 н/о н/о +14.0 +13.5 97 +14 +14 1023.8 1022.9 +12.4 +28.2
06 11.06 Ю 1 н/о н/о +15.4 +15.0 97 +16 +16 1025.7 1024.8 +11.8
09 11.06 Ю 1 н/о н/о +25.3 +17.8 63 +30 +30 душно 1025.5 1024.6 +11.8 +25.3
12 11.06 СВ 3 н/о н/о +25.9 +17.6 60 +30 +30 душно 1022.9 1022.0 +11.8 +26.1
15 11.06 С 2 н/о н/о +21.2 +18.6 85 +26 +26 душно 1022.5 1021.6 +21.2 +26.2
18 11.06 СЗ 2 н/о н/о +19.1 +17.6 91 +21 +21 комфорт 1023.0 1022.1 +19.1 +26.2
21 11.06 СЗ 3 н/о н/о +18.6 +16.7 89 +20 +20 1022.5 1021.6 +18.5 +26.2
00 12.06 С 3 н/о н/о +18.5 +17.0 91 +19 +19 1021.1 1020.2 +18.4 +26.2
03 12.06 С 5 н/о н/о +17.7 +16.4 92 +17 +17 1019.6 1018.7 +17.7 +26.2
06 12.06 СЗ 3 н/о н/о +18.0 +15.6 86 +18 +18 1019.8 1018.9 +17.0
09 12.06 С 5 н/о н/о +24.9 +16.4 59 +28 +28 жарко 1018.3 1017.4 +17.0 +24.9
12 12.06 С 3 н/о н/о +27.7 +15.9 49 +31 +31 душно 1015.7 1014.8 +17.0 +28.4
15 12.06 С 2 н/о н/о +23.2 +16.8 67 +28 +28 душно 1016.3 1015.4 +23.2 +28.4
18 12.06 штиль 0 н/о н/о +14.6 +12.9 90 +14 +14 1018.6 1017.7 +14.6 +28.4
21 12.06 З 2 н/о н/о +17.4 +13.3 77 +18 +18 1020.4 1019.5 +12.8 +28.4
00 13.06 ЮЗ 3 н/о н/о +19.0 +16.6 86 +21 +21 комфорт 1020.9 1020.0 +12.8 +28.4
03 13.06 Ю 3 н/о н/о +19.6 +15.9 79 +22 +22 комфорт 1022.9 1022.0 +12.8 +28.4
06 13.06 Ю 5 н/о н/о +18.0 +16.7 92 +18 +18 1027.1 1026.2 +12.8 0.6
09 13.06 ЮЗ 3 н/о н/о +16.9 +15.9 94 +17 +17 1029.5 1028.6 +12.8 +18.1
12 13.06 Ю 6 н/о н/о +17.3 +14.0 81 +17 +17 1029.3 1028.4 +12.8 +18.1 10
15 13.06 ЮЗ 3 н/о н/о +15.7 +14.2 91 +15 +15 1030.6 1029.7 +15.7 +18.3
18 13.06 ЮЗ 3 н/о н/о +15.5 +13.3 87 +15 +15 1032.6 1031.7 +15.2 +18.3 10
21 13.06 ЮЗ 2 н/о н/о +14.1 +12.5 90 +14 +14 1032.8 1031.9 +14.1 +18.3
00 14.06 ЮЗ 2 н/о н/о +13.6 +11.6 88 +13 +13 1031.9 1031.0 +13.6 +18.3 10
03 14.06 ЮЗ 2 н/о н/о +13.1 +11.5 90 +12 +12 1031.9 1031.0 +12.0 +18.3
06 14.06 ЮЗ 3 н/о н/о +14.9 +10.7 76 +14 +14 1033.0 1032.1 +12.0 10
09 14.06 Ю 2 н/о н/о +21.1 +13.4 61 +23 +23 комфорт 1032.4 1031.5 +12.0 +21.4
12 14.06 В 3 н/о н/о +21.5 +12.7 57 +24 +24 комфорт 1029.5 1028.6 +12.0 +22.3
15 14.06 В 1 н/о н/о +16.7 +13.4 81 +18 +18 1029.4 1028.5 +16.7 +22.3
18 14.06 ЮЗ 1 н/о н/о +11.4 +10.7 95 +11 +11 1030.4 1029.5 +11.3 +22.3 0.2
21 14.06 З 3 н/о н/о +12.0 +11.2 95 +10 +10 1029.9 1029.0 +10.9 +22.3
00 15.06 штиль 0 н/о н/о +8.3 +7.8 97 +7 +7 1028.5 1027.6 +8.1 +22.3 0.2
03 15.06 штиль 0 н/о н/о +6.5 +6.2 98 +5 +5 1027.6 1026.6 +6.2 +22.3
06 15.06 С 1 н/о н/о +13.4 +12.9 97 +13 +13 1028.1 1027.2 +6.2 0.2
09 15.06 С 3 н/о н/о +21.8 +13.0 57 +24 +24 комфорт 1027.5 1026.6 +6.2 +21.8
12 15.06 С 4 н/о н/о +23.5 +13.5 53 +26 +26 жарко 1023.7 1022.8 +6.2 +23.8
15 15.06 С 3 н/о н/о +19.5 +15.0 75 +22 +22 комфорт 1023.6 1022.7 +19.5 +23.8
18 15.06 С 4 н/о н/о +18.5 +13.4 72 +19 +19 1024.2 1023.3 +18.1 +23.8
21 15.06 С 3 н/о н/о +16.9 +12.5 75 +17 +17 1024.3 1023.4 +16.8 +23.8
00 16.06 С 3 н/о н/о +16.3 +13.0 81 +16 +16 1022.8 1021.9 +16.2 +23.8
03 16.06 С 1 н/о н/о +9.6 +8.6 93 +9 +9 1023.1 1022.2 +9.6 +23.8
06 16.06 штиль 0 н/о н/о +14.6 +11.7 83 +14 +14 1025.4 1024.5 +9.5
09 16.06 В 1 н/о н/о +19.6 +11.9 61 +22 +22 комфорт 1026.4 1025.5 +9.5 +19.6
12 16.06 ЮВ 2 н/о н/о +23.0 +14.9 60 +27 +27 душно 1024.8 1023.9 +9.5 +23.5
15 16.06 штиль 0 н/о н/о +16.4 +13.9 85 +16 +16 1025.0 1024.1 +16.4 +23.7
18 16.06 З 1 н/о н/о +11.5 +10.7 95 +11 +11 1026.6 1025.7 +11.5 +23.7
21 16.06 СЗ 1 н/о н/о +10.9 +10.4 97 +10 +10 1026.7 1025.8 +10.0 +23.7
00 17.06 СЗ 1 н/о н/о +10.7 +10.2 97 +10 +10 1025.8 1024.9 +10.0 +23.7
03 17.06 СЗ 2 н/о н/о +10.9 +10.4 97 +10 +10 1025.9 1025.0 +8.4 +23.7
06 17.06 С 2 н/о н/о +14.0 +13.2 95 +14 +14 1026.5 1025.6 +8.4
09 17.06 С 6 н/о н/о +23.3 +15.2 60 +27 +27 душно 1025.9 1025.0 +8.4 +23.3
12 17.06 С 4 н/о н/о +25.2 +15.9 56 +28 +28 жарко 1022.8 1021.9 +8.4 +26.0
15 17.06 С 3 н/о н/о +21.1 +16.7 76 +25 +25 комфорт 1022.5 1021.6 +21.1 +26.0
18 17.06 С 3 н/о н/о +19.7 +15.0 74 +22 +22 комфорт 1024.1 1023.2 +19.4 +26.0
21 17.06 С 1 н/о н/о +18.0 +14.1 78 +19 +19 1024.6 1023.7 +18.0 +26.0

 

Местоположение метеостанции Станция Charters Creek (Южная Африка): широта -28.20 долгота 32.42 высота над уровнем моря 9 м.

В архиве по умолчанию представлена погода на Станции Charters Creek за последнюю неделю. Архивные данные за месяц целиком и за предыдущие месяцы, начиная с января 2011 года, Вы можете получить, выбрав интересующий диапазон дат из раскрывающегося списка и нажав кнопку "Ввод!".


*Определитесь, кто Вы:
робот инопланетянин человек

Внимание! Время в таблицах - всемирное. Для получения местного времени необходимо прибавить поправку, которая равна 2 ч.

Смотрите также архив погоды в соседних городах и на ближайших метеорологических станциях:

Погода в Ричардс-Бей (Южная Африка) (68 км)
Погода в Мбазване (Южная Африка) (82 км)
Погода в Макатини (Южная Африка) (94 км)
Погода в Удунди (Южная Африка) (99 км)
Погода в Мтунзини (Южная Африка) (109 км)
Погода в Бабананго (Южная Африка) (119 км)
Погода в Понголе (Южная Африка) (119 км)
Погода в Мандини (Южная Африка) (145 км)
Погода в Ндзевейне (Свазиленд) (145 км)
Погода в Иерихоне (Свазиленд) (150 км)

Пояснения к столбцам:

Ветер - указаны скорость ветра в м/с - средняя за 10 мин, порывы в срок и между сроками (в фигурных скобках) и направление, откуда дует ветер: С - северный, СВ - северо-восточный, В - восточный, ЮВ - юго-восточный, Ю - южный, ЮЗ - юго-западный, З - западный, СЗ - северо-западный.
Видимость - горизонтальная дальность видимости в метрах или километрах. При видимости от 1 до 10 км при отсутствии осадков обычно наблюдается дымка, при ухудшении видимости до 1 км и менее - туман. В сухую погоду видимость может ухудшаться дымом, пылью или мглою.
Явления - указаны атмосферные явления, наблюдавшиеся в срок или в последний час перед сроком; фигурными скобками обозначены явления, наблюдавшиеся между сроками (за 1-3 часа до срока); квадратными скобками обозначены град или гололедные отложения с указанием их диаметра в мм.
Облачность - указаны через наклонную черту общая и нижняя облачность в баллах и высота нижней границы облаков в метрах; квадратными скобками обозначены формы облаков: Ci - перистые, Cs - перисто-слоистые, Cc - перисто-кучевые, Ac - высококучевые, As - высокослоистые, Sc - слоисто-кучевые, Ns - слоисто-дождевые, Cu - кучевые, Cb - кучево-дождевые. Подробнее классификацию облаков см. в Атласе облаков (PDF).
T - Температура воздуха - температура, измеренная на высоте 2 м над землей.
Td - Температура точки росы - температура, при понижении до которой содержащийся в воздухе водяной пар достигнет насыщения.
f - Относительная влажность воздуха - влажноcть воздуха, измеренная на высоте 2 м над землей.
Te - Эффективная температура - температура, которую ощущает одетый по сезону человек в тени. Характеристика душности погоды. При расчете учитывается влияние влажности воздуха и скорости ветра на теплоощущения человека.
Tes - Эффективная температура на солнце - температура, которую ощущает человек, с поправкой на солнечный нагрев. Характеристика знойности погоды. Зависит от высоты солнца над горизонтом, облачности и скорости ветра. Ночью, в пасмурную погоду, а также при ветре 12 м/с и более поправка равна нулю.
P - Атмосферное давление - приведенное к уровню моря атмосферное давление.
Po - Атмосферное давление - измеренное на уровне метеостанции атмосферное давление.
Tmin - Минимальная температура - минимум температуры воздуха на высоте 2 м над землей.
Tmax - Максимальная температура - максимум температуры воздуха на высоте 2 м над землей.
R - Количество осадков - Количество выпавших осадков за период времени, мм. При наведении курсора мыши на число - период времени, за который выпало указанное количество осадков.
R24 - Количество осадков - Количество выпавших осадков за 24 часа, мм.
S - Снежный покров - Высота снежного покрова, см. При наведении курсора мыши на число - состояние снежного покрова и степень покрытия местности в баллах.